Location: Nelson
(41.2830°S, 173.2830°E)
Time: 16:30:24
(UTC+12:00)

USA 32 - Pass Details

Date: 24 January 2019
Orbit: 779 x 781 km, 85.0° (Epoch: 13 April)

Event Time Altitude Azimuth Distance (km) Brightness Sun altitude
Rises 21:31:12 0° 357° (N) 3,256 7.0 -6.7°
Reaches altitude 10° 21:33:32 10° 356° (N) 2,337 6.2 -7.1°
Maximum altitude 21:38:48 88° 270° (W) 797 4.1 -7.9°
Drops below altitude 10° 21:44:08 10° 176° (S) 2,370 7.0 -8.7°
Sets 21:46:31 0° 175° (S) 3,306 7.7 -9.1°
